Find SilverSat

NORAD ID: 66909 Int'l Des: 1998-067 Owner: SILVER Country: US operational
LEOCIRCULAR

实时位置

正在加载3D地球...

关于 SilverSat

正在加载描述...

即将过境

Passes for default location (London). Set your location on the main map for personalized predictions.

高度历史

Loading altitude history...

两行轨道根数

1 66909U 98067XV 26106.56755711 .00764812 28915-3 12799-2 0 9998
2 66909 51.6139 227.4457 0014275 326.0751 33.9346 16.02081806 21194
Epoch: Apr 16, 2026 • Age: 23 hours

当前状态

高度 258.3 km
速度 7.76 km/s
星下点 12.10°N, 155.45°W
发射日期 Sep 14, 2025
运行时间 0.5 years
类型 other

技术详情

分类 Payload
质量 0.88 kg
干质量 0.88 kg
总质量 0.88 kg
长度 0.10 m
直径 0.10 m
跨度 0.40 m
形状 Box+antenna
制造商 SILVER
平台类型 Cubesat 1U
阶段状态 In Orbit
所有者/国家 SILVER/US

Most Searched